PORT of AJACCIO

Valsts: France Valsts: France (FR)
Platums / garums: 41.925915° / 8.742398° Rādīt kartē Rādīt kartē
Vietējais laiks:  UTC +2
UN/LOCODE: FRAJA
Kuģi pašreiz ostā: 9
Gaidāmās pienākšanas: 4

Nesenās pienākšanas un atiešanas


Kuģa nosaukums
Pienākšana (UTC)
Pienākšana (LT)
Atiešana (UTC)
Atiešana (LT)
Vessel Type: Velkoņi, loču kuteri  MISTRAL 2014-09-19 17:07:00 2014-09-19 19:07:00
Vessel Type: Velkoņi, loču kuteri  MISTRAL 2014-09-19 16:33:00 2014-09-19 18:33:00 2014-09-19 17:06:00 2014-09-19 19:06:00
Vessel Type: Pasažieru kuģi  KALLISTE 2014-09-19 04:35:00 2014-09-19 06:35:00 2014-09-19 17:05:00 2014-09-19 19:05:00
Vessel Type: Velkoņi, loču kuteri  MISTRAL 2014-09-19 14:05:00 2014-09-19 16:05:00 2014-09-19 15:51:00 2014-09-19 17:51:00
Vessel Type: Jahtas un citi  ALTER EGO 2014-09-19 05:54:00 2014-09-19 07:54:00 2014-09-19 14:12:00 2014-09-19 16:12:00
Vessel Type: Velkoņi, loču kuteri  MISTRAL 2014-09-19 13:08:00 2014-09-19 15:08:00 2014-09-19 14:00:00 2014-09-19 16:00:00
Vessel Type: Pasažieru kuģi  MEGA EXPRESS FOUR 2014-09-19 13:08:00 2014-09-19 15:08:00 2014-09-19 14:00:00 2014-09-19 16:00:00
Vessel Type: Velkoņi, loču kuteri  MISTRAL 2014-09-19 06:27:00 2014-09-19 08:27:00 2014-09-19 12:47:00 2014-09-19 14:47:00
Vessel Type: Jahtas un citi  SHRUBB 2014-09-19 08:24:00 2014-09-19 10:24:00 2014-09-19 12:44:00 2014-09-19 14:44:00
Vessel Type: Jahtas un citi  SBALLATA 2014-09-17 09:16:00 2014-09-17 11:16:00 2014-09-19 07:14:00 2014-09-19 09:14:00

Gaidāmās pienākšanas


Kuģa nosaukums
Scheduled Arrival (UTC)
Paredzētā pienākšana (vietējais laiks)
Plānotā pienākšana (UTC)
Plānotais pienākšanas laiks (vietējais laiks)
Vessel Type: Jahtas un citi  ALTER EGO 2014-09-19 11:18:00 2014-09-19 13:18:00
Vessel Type: Pasažieru kuģi  JEAN NICOLI 2014-09-20 05:10:00 2014-09-20 07:10:00
Vessel Type: Pasažieru kuģi  COSTA MEDITERRANEA 2014-09-20 11:00:00 2014-09-20 13:00:00 2014-09-20 16:50:00 2014-09-20 18:50:00
Vessel Type: Pasažieru kuģi  EMERALD PRINCESS 2014-09-21 07:00:00 2014-09-21 09:00:00 2014-09-21 04:18:00 2014-09-21 06:18:00

Wind Forecast


    
Laiks (UTC)
Ātrums
DirectionDirection
Temperature
2014-09-19 18:00:00 2 knots 313° 24°C
2014-09-19 21:00:00 2 knots 359° 24°C
2014-09-20 00:00:00 1 knots 24°C
2014-09-20 03:00:00 3 knots 186° 24°C
2014-09-20 06:00:00 4 knots 33° 23°C
2014-09-20 09:00:00 3 knots 326° 24°C
2014-09-20 12:00:00 8 knots 290° 23°C
2014-09-20 15:00:00 5 knots 296° 22°C
2014-09-20 18:00:00 3 knots 37° 23°C
2014-09-20 21:00:00 4 knots 351° 23°C
2014-09-21 00:00:00 2 knots 356° 23°C
2014-09-21 03:00:00 1 knots 111° 23°C
2014-09-21 06:00:00 3 knots 152° 23°C
2014-09-21 09:00:00 0 knots 193° 23°C
2014-09-21 12:00:00 4 knots 158° 23°C
2014-09-21 15:00:00 8 knots 265° 24°C
2014-09-21 18:00:00 3 knots 41° 23°C